Newport Airport, OR

6:41 PM PDT on March 30, 2017 (GMT -0700)
Newport Municipal

Weather History for KONP - January, 2014

Change the Weather History Date:

Sunday, January 5, 2014

  Actual Average Record
Temperature  
Mean Temperature 48 °F -  
Max Temperature 55 °F 48 °F 62 °F (2006)
Min Temperature 42 °F 40 °F 28 °F (2017)
Degree Days  
Heating Degree Days 16    
Moisture  
Dew Point 25 °F    
Average Humidity 41    
Maximum Humidity 53    
Minimum Humidity 29    
Precipitation  
Precipitation 0.00 in - - ()
Sea Level Pressure  
Sea Level Pressure 30.29 in    
Wind  
Wind Speed 22 mph (East)    
Max Wind Speed 25 mph    
Max Gust Speed 32 mph    
Visibility 10 miles    
Events      
Averages and records for this station are not official NWS values.
T = Trace of Precipitation, MM = Missing Value Source: NWS Daily Summary

Daily Weather History Graph

Daily Weather History Graph

Search for Another Location

Airport or City:

Trip Planner

Search our weather history database for the weather conditions in past years. The results will help you decide how hot, cold, wet, or windy it might be!

Date:

Astronomy

Jan. 05, 2014 Rise Set
Actual Time 7:52 AM PST 4:50 PM PST
Civil Twilight 7:19 AM PST 5:24 PM PST
Nautical Twilight 6:43 AM PST 6:00 PM PST
Astronomical Twilight 6:07 AM PST 6:35 PM PST
Moon 10:24 AM PST (1/5) 10:39 PM PST (1/5)
Length of Visible Light 10h 04m
Length of Day
8h 58m
Waxing Crescent, 25% of the Moon is Illuminated
Jan 5
Waxing Crescent
Jan 7
First Quarter
Jan 15
Full
Jan 23
Last Quarter
Jan 30
New

Hourly Weather History & Observations

Time (PST) Temp. Windchill Dew Point Humidity Pressure Visibility Wind Dir Wind Speed Gust Speed Precip Events Conditions
12:15 AM 44.6 °F 36.1 °F 28.4 °F 53% 30.32 in 10.0 mi East 21.9 mph - N/A   Clear
12:35 AM 44.6 °F 35.9 °F 28.4 °F 53% 30.32 in 10.0 mi East 23.0 mph 26.5 mph N/A   Clear
12:55 AM 44.6 °F 36.4 °F 28.4 °F 53% 30.32 in 10.0 mi East 20.7 mph 28.8 mph N/A   Clear
1:15 AM 44.6 °F 35.9 °F 28.4 °F 53% 30.32 in 10.0 mi East 23.0 mph - N/A   Clear
1:35 AM 44.6 °F 35.7 °F 28.4 °F 53% 30.32 in 10.0 mi East 24.2 mph - N/A   Clear
1:55 AM 44.6 °F 35.7 °F 26.6 °F 49% 30.32 in 10.0 mi East 24.2 mph 29.9 mph N/A   Clear
2:15 AM 44.6 °F 35.9 °F 26.6 °F 49% 30.33 in 10.0 mi East 23.0 mph 29.9 mph N/A   Clear
2:35 AM 44.6 °F 35.7 °F 26.6 °F 49% 30.33 in 10.0 mi East 24.2 mph - N/A   Clear
2:55 AM 44.6 °F 35.5 °F 26.6 °F 49% 30.33 in 10.0 mi ENE 25.3 mph 28.8 mph N/A   Clear
3:15 AM 44.6 °F 35.5 °F 26.6 °F 49% 30.33 in 10.0 mi ENE 25.3 mph 29.9 mph N/A   Clear
3:35 AM 44.6 °F 35.9 °F 26.6 °F 49% 30.33 in 10.0 mi East 23.0 mph 27.6 mph N/A   Clear
3:55 AM 44.6 °F 35.9 °F 26.6 °F 49% 30.33 in 10.0 mi ENE 23.0 mph - N/A   Clear
4:15 AM 44.6 °F 35.9 °F 24.8 °F 46% 30.32 in 10.0 mi ENE 23.0 mph 29.9 mph N/A   Clear
4:35 AM 44.6 °F 35.9 °F 24.8 °F 46% 30.32 in 10.0 mi East 23.0 mph 28.8 mph N/A   Clear
4:55 AM 44.6 °F 36.1 °F 23.0 °F 43% 30.32 in 10.0 mi East 21.9 mph 27.6 mph N/A   Clear
5:15 AM 44.6 °F 36.1 °F 23.0 °F 43% 30.33 in 10.0 mi East 21.9 mph 27.6 mph N/A   Clear
5:35 AM 44.6 °F 36.4 °F 23.0 °F 43% 30.33 in 10.0 mi East 20.7 mph - N/A   Clear
5:55 AM 44.6 °F 36.6 °F 23.0 °F 43% 30.33 in 10.0 mi East 19.6 mph 25.3 mph N/A   Clear
6:15 AM 44.6 °F 36.4 °F 23.0 °F 43% 30.33 in 10.0 mi East 20.7 mph 27.6 mph N/A   Clear
6:35 AM 44.6 °F 36.4 °F 23.0 °F 43% 30.33 in 10.0 mi East 20.7 mph 27.6 mph N/A   Clear
6:55 AM 42.8 °F 34.0 °F 23.0 °F 46% 30.32 in 10.0 mi East 20.7 mph 25.3 mph N/A   Clear
7:15 AM 42.8 °F 33.8 °F 23.0 °F 46% 30.33 in 10.0 mi East 21.9 mph 27.6 mph N/A   Clear
7:35 AM 42.8 °F 33.8 °F 23.0 °F 46% 30.33 in 10.0 mi East 21.9 mph 26.5 mph N/A   Clear
7:55 AM 42.8 °F 33.8 °F 23.0 °F 46% 30.33 in 10.0 mi East 21.9 mph 27.6 mph N/A   Clear
8:15 AM 44.6 °F 35.9 °F 23.0 °F 43% 30.33 in 10.0 mi East 23.0 mph 27.6 mph N/A   Clear
8:35 AM 44.6 °F 36.1 °F 23.0 °F 43% 30.33 in 10.0 mi East 21.9 mph 28.8 mph N/A   Clear
8:55 AM 44.6 °F 36.4 °F 23.0 °F 43% 30.33 in 10.0 mi East 20.7 mph 29.9 mph N/A   Clear
9:15 AM 46.4 °F 38.3 °F 23.0 °F 40% 30.33 in 10.0 mi East 23.0 mph 28.8 mph N/A   Clear
9:35 AM 46.4 °F 38.3 °F 23.0 °F 40% 30.34 in 10.0 mi East 23.0 mph 29.9 mph N/A   Clear
9:55 AM 46.4 °F 38.7 °F 23.0 °F 40% 30.34 in 10.0 mi East 20.7 mph 28.8 mph N/A   Clear
10:15 AM 48.2 °F - 23.0 °F 37% 30.33 in 10.0 mi East 21.9 mph 26.5 mph N/A   Clear
10:35 AM 50.0 °F - 23.0 °F 35% - 10.0 mi East 21.9 mph 28.8 mph N/A   Clear
10:55 AM 50.0 °F - 23.0 °F 35% 30.33 in 10.0 mi East 20.7 mph 27.6 mph N/A   Clear
11:15 AM 51.8 °F - 23.0 °F 33% 30.33 in 10.0 mi East 19.6 mph 25.3 mph N/A   Clear
11:35 AM 51.8 °F - 24.8 °F 35% 30.32 in 10.0 mi East 19.6 mph 25.3 mph N/A   Clear
11:55 AM 51.8 °F - 23.0 °F 33% 30.31 in 10.0 mi East 20.7 mph 26.5 mph N/A   Clear
12:15 PM 51.8 °F - 24.8 °F 35% - 10.0 mi East 21.9 mph 27.6 mph N/A   Clear
12:35 PM 53.6 °F - 26.6 °F 35% 30.28 in 10.0 mi East 20.7 mph - N/A   Clear
12:55 PM 53.6 °F - 24.8 °F 33% 30.27 in 10.0 mi East 20.7 mph 26.5 mph N/A   Clear
1:15 PM 53.6 °F - 26.6 °F 35% 30.26 in 10.0 mi East 19.6 mph 26.5 mph N/A   Clear
1:35 PM 53.6 °F - 24.8 °F 33% 30.26 in 10.0 mi ESE 18.4 mph 23.0 mph N/A   Clear
1:55 PM 55.4 °F - 24.8 °F 31% 30.25 in 10.0 mi East 21.9 mph 26.5 mph N/A   Clear
2:15 PM 55.4 °F - 24.8 °F 31% 30.25 in 10.0 mi East 20.7 mph - N/A   Clear
2:35 PM 55.4 °F - 23.0 °F 29% 30.25 in 10.0 mi East 19.6 mph 24.2 mph N/A   Clear
2:55 PM 55.4 °F - 23.0 °F 29% 30.24 in 10.0 mi East 17.3 mph - N/A   Clear
3:15 PM 55.4 °F - 24.8 °F 31% 30.24 in 10.0 mi East 16.1 mph - N/A   Clear
3:35 PM 53.6 °F - 24.8 °F 33% 30.24 in 10.0 mi East 12.7 mph - N/A   Clear
3:55 PM 53.6 °F - 24.8 °F 33% 30.23 in 10.0 mi East 18.4 mph - N/A   Clear
4:15 PM 51.8 °F - 24.8 °F 35% 30.23 in 10.0 mi East 18.4 mph 26.5 mph N/A   Clear
4:35 PM 51.8 °F - 26.6 °F 38% - 10.0 mi East 20.7 mph 25.3 mph N/A   Clear
4:55 PM 50.0 °F - 26.6 °F 40% 30.22 in 10.0 mi East 24.2 mph 29.9 mph N/A   Clear
5:15 PM 50.0 °F - 28.4 °F 43% 30.22 in 10.0 mi East 19.6 mph 28.8 mph N/A   Clear
5:35 PM 50.0 °F - 28.4 °F 43% 30.21 in 10.0 mi East 19.6 mph 29.9 mph N/A   Clear
5:55 PM 48.2 °F - 28.4 °F 46% 30.21 in 10.0 mi East 24.2 mph 31.1 mph N/A   Clear
6:15 PM 48.2 °F - 28.4 °F 46% 30.21 in 10.0 mi East 23.0 mph 29.9 mph N/A   Clear
6:35 PM 50.0 °F - 26.6 °F 40% 30.20 in 10.0 mi East 25.3 mph 28.8 mph N/A   Clear
6:55 PM 48.2 °F - 26.6 °F 43% 30.19 in 10.0 mi East 24.2 mph 29.9 mph N/A   Clear
7:15 PM 50.0 °F - 26.6 °F 40% 30.19 in 10.0 mi East 25.3 mph 32.2 mph N/A   Clear
7:35 PM 50.0 °F - 26.6 °F 40% 30.19 in 10.0 mi ENE 25.3 mph 32.2 mph N/A   Clear
7:55 PM 50.0 °F - 26.6 °F 40% 30.19 in 10.0 mi East 24.2 mph 29.9 mph N/A   Clear
8:15 PM 48.2 °F - 26.6 °F 43% 30.19 in 10.0 mi East 24.2 mph 31.1 mph N/A   Clear